QPF
0.10 0.09 0.11 0.17 0.19 0.15 0.14 0.14 0.13 0.12 0.08 0.05 0.05 0.05 0.03 0.03 0.04 0.03 0.05 0.05 0.03 0.03 0.04 0.05 0.06 0.08 0.07 0.05 0.06 0.07 0.07 0.07 0.07 0.08 0.09 0.10 0.14 0.15 0.12 0.09 0.08 0.06 0.06
0.10 0.11 0.12 0.14 0.15 0.11 0.09 0.08 0.09 0.09 0.08 0.06 0.06 0.04 0.04 0.05 0.03 0.02 0.03 0.04 0.03 0.03 0.03 0.04 0.07 0.07 0.07 0.08 0.09 0.10 0.08 0.06 0.04 0.04 0.06 0.08 0.13 0.13 0.10 0.08 0.07 0.07 0.06
0.09 0.10 0.12 0.12 0.12 0.10 0.07 0.06 0.07 0.07 0.07 0.06 0.05 0.04 0.05 0.05 0.05 0.03 0.06 0.06 0.04 0.03 0.04 0.04 0.06 0.07 0.08 0.10 0.10 0.07 0.07 0.06 0.05 0.04 0.05 0.06 0.09 0.08 0.08 0.08 0.07 0.07 0.07
0.06 0.08 0.09 0.09 0.08 0.06 0.06 0.06 0.06 0.07 0.08 0.08 0.06 0.05 0.05 0.05 0.06 0.04 0.06 0.06 0.06 0.05 0.04 0.03 0.04 0.06 0.07 0.07 0.09 0.08 0.07 0.06 0.06 0.04 0.03 0.05 0.06 0.06 0.06 0.07 0.08 0.07 0.06
0.03 0.05 0.07 0.07 0.07 0.05 0.05 0.05 0.06 0.07 0.09 0.08 0.05 0.04 0.04 0.03 0.04 0.02 0.02 0.03 0.05 0.06 0.05 0.03 0.03 0.03 0.05 0.05 0.05 0.06 0.07 0.07 0.06 0.05 0.05 0.06 0.07 0.06 0.05 0.06 0.08 0.08 0.08
0.02 0.03 0.05 0.07 0.05 0.04 0.04 0.05 0.06 0.05 0.05 0.05 0.03 0.03 0.03 0.03 0.03 0.04 0.04 0.05 0.06 0.05 0.07 0.06 0.05 0.03 0.03 0.04 0.04 0.05 0.06 0.06 0.07 0.08 0.09 0.08 0.09 0.08 0.07 0.07 0.08 0.09 0.08
0.01 0.02 0.03 0.06 0.05 0.05 0.05 0.04 0.07 0.06 0.05 0.06 0.07 0.07 0.05 0.03 0.03 0.04 0.05 0.04 0.04 0.04 0.06 0.06 0.05 0.05 0.03 0.03 0.03 0.03 0.03 0.05 0.07 0.12 0.17 0.16 0.14 0.10 0.08 0.08 0.10 0.08 0.08
0.01 0.01 0.02 0.03 0.04 0.06 0.06 0.04 0.07 0.08 0.07 0.06 0.08 0.10 0.08 0.07 0.06 0.04 0.04 0.03 0.03 0.05 0.05 0.06 0.07 0.05 0.05 0.05 0.04 0.02 0.03 0.04 0.08 0.13 0.15 0.14 0.13 0.11 0.08 0.07 0.08 0.06 0.06
0.01 0.02 0.02 0.03 0.04 0.04 0.06 0.07 0.06 0.08 0.09 0.08 0.08 0.10 0.12 0.11 0.09 0.06 0.05 0.04 0.05 0.05 0.05 0.06 0.06 0.06 0.05 0.06 0.06 0.03 0.03 0.03 0.07 0.10 0.10 0.08 0.08 0.08 0.08 0.09 0.09 0.08 0.08
0.01 0.02 0.02 0.02 0.03 0.03 0.06 0.07 0.07 0.08 0.09 0.08 0.08 0.08 0.08 0.12 0.13 0.10 0.06 0.04 0.05 0.05 0.06 0.05 0.07 0.08 0.07 0.08 0.07 0.05 0.04 0.04 0.06 0.07 0.07 0.07 0.06 0.05 0.06 0.07 0.08 0.10 0.12
0.01 0.01 0.01 0.03 0.05 0.05 0.06 0.05 0.08 0.08 0.07 0.06 0.06 0.07 0.10 0.10 0.11 0.11 0.09 0.06 0.05 0.04 0.04 0.04 0.07 0.08 0.10 0.11 0.10 0.08 0.06 0.05 0.05 0.05 0.05 0.05 0.04 0.04 0.05 0.05 0.06 0.08 0.12
0.02 0.02 0.04 0.05 0.05 0.04 0.05 0.06 0.07 0.06 0.06 0.06 0.05 0.06 0.08 0.08 0.10 0.11 0.08 0.07 0.06 0.05 0.05 0.05 0.05 0.07 0.07 0.07 0.07 0.08 0.06 0.04 0.03 0.03 0.03 0.03 0.03 0.03 0.04 0.05 0.05 0.07 0.09
0.04 0.04 0.05 0.06 0.07 0.07 0.06 0.07 0.06 0.06 0.06 0.06 0.05 0.05 0.07 0.06 0.07 0.09 0.09 0.07 0.06 0.05 0.06 0.06 0.05 0.04 0.03 0.04 0.04 0.06 0.06 0.05 0.04 0.03 0.03 0.03 0.02 0.03 0.03 0.04 0.05 0.06 0.08
0.05 0.05 0.05 0.06 0.07 0.07 0.06 0.06 0.04 0.04 0.05 0.04 0.04 0.06 0.06 0.06 0.06 0.06 0.07 0.08 0.07 0.06 0.06 0.06 0.05 0.03 0.03 0.04 0.04 0.05 0.06 0.05 0.04 0.03 0.03 0.04 0.03 0.02 0.03 0.04 0.06 0.08 0.09
0.08 0.06 0.05 0.04 0.05 0.04 0.03 0.04 0.03 0.03 0.04 0.04 0.04 0.06 0.07 0.06 0.07 0.06 0.06 0.06 0.07 0.06 0.06 0.06 0.06 0.05 0.04 0.05 0.05 0.05 0.06 0.06 0.04 0.03 0.02 0.02 0.01 0.01 0.01 0.02 0.04 0.07 0.09
0.09 0.06 0.03 0.03 0.02 0.02 0.02 0.02 0.03 0.03 0.04 0.03 0.04 0.06 0.06 0.06 0.07 0.06 0.05 0.05 0.07 0.08 0.07 0.07 0.06 0.05 0.04 0.04 0.05 0.05 0.05 0.05 0.03 0.02 0.01 0.01 0.01 0.01 0.01 0.01 0.01 0.04 0.07
0.07 0.05 0.03 0.02 0.01 0.01 0.01 0.02 0.02 0.03 0.03 0.03 0.03 0.03 0.04 0.06 0.06 0.05 0.05 0.05 0.05 0.07 0.06 0.04 0.03 0.03 0.04 0.05 0.04 0.03 0.02 0.02 0.01 0.01 0.01 0.01 0.01 0.01 0.01 0.02 0.02 0.02 0.03
0.03 0.03 0.02 0.01 0.01 0.01 0.01 0.02 0.02 0.02 0.04 0.03 0.02 0.03 0.03 0.04 0.06 0.06 0.05 0.04 0.05 0.05 0.04 0.03 0.03 0.04 0.05 0.04 0.03 0.02 0.01 0.01 0.01 0.01 0.01 0.01 0.01 0.01 0.01 0.01 0.01 0.01 0.02
0.02 0.02 0.02 0.02 0.01 0.02 0.02 0.02 0.03 0.03 0.04 0.04 0.04 0.04 0.03 0.04 0.04 0.04 0.03 0.03 0.04 0.04 0.05 0.04 0.03 0.04 0.03 0.02 0.02 0.01 0.01 0.01 0.01 0.01 0.01 0.01 0.01 0.01 0.01 0.01 0.00 0.01 0.01
0.01 0.02 0.02 0.02 0.02 0.02 0.02 0.02 0.03 0.04 0.05 0.05 0.05 0.06 0.05 0.04 0.04 0.03 0.02 0.03 0.03 0.03 0.05 0.05 0.04 0.04 0.03 0.02 0.02 0.01 0.01 0.01 0.01 0.01 0.01 0.01 0.01 0.01 0.01 0.01 0.00 0.00 0.01
0.02 0.03 0.06 0.06 0.03 0.02 0.02 0.03 0.04 0.03 0.05 0.05 0.04 0.04 0.04 0.02 0.03 0.02 0.01 0.02 0.04 0.05 0.06 0.05 0.04 0.04 0.03 0.03 0.02 0.02 0.02 0.02 0.02 0.02 0.02 0.01 0.01 0.01 0.01 0.01 0.01 0.01 0.01
0.03 0.04 0.05 0.03 0.01 0.01 0.03 0.02 0.02 0.02 0.04 0.04 0.03 0.04 0.02 0.02 0.02 0.01 0.00 0.01 0.02 0.04 0.05 0.06 0.04 0.04 0.03 0.02 0.02 0.02 0.01 0.01 0.01 0.02 0.01 0.01 0.02 0.02 0.02 0.02 0.02 0.02 0.02
0.02 0.02 0.02 0.01 0.01 0.01 0.02 0.01 0.02 0.01 0.02 0.02 0.03 0.03 0.02 0.02 0.02 0.01 0.01 0.02 0.03 0.04 0.04 0.05 0.05 0.05 0.05 0.03 0.02 0.01 0.01 0.01 0.01 0.01 0.01 0.01 0.02 0.01 0.01 0.01 0.01 0.01 0.01
0.02 0.03 0.02 0.02 0.01 0.01 0.01 0.01 0.01 0.01 0.02 0.02 0.02 0.03 0.03 0.03 0.03 0.03 0.03 0.04 0.04 0.04 0.04 0.03 0.04 0.05 0.05 0.04 0.03 0.01 0.01 0.01 0.01 0.01 0.01 0.01 0.01 0.01 0.01 0.01 0.01 0.00 0.01
0.04 0.05 0.05 0.03 0.03 0.03 0.02 0.02 0.02 0.01 0.02 0.02 0.03 0.04 0.04 0.04 0.04 0.05 0.05 0.05 0.05 0.04 0.04 0.04 0.03 0.03 0.04 0.03 0.02 0.01 0.01 0.01 0.01 0.01 0.01 0.01 0.01 0.01 0.01 0.00 0.00 0.00 0.00
0.08 0.10 0.09 0.08 0.08 0.07 0.05 0.04 0.03 0.02 0.02 0.03 0.03 0.03 0.04 0.05 0.06 0.06 0.06 0.05 0.05 0.05 0.04 0.03 0.02 0.02 0.02 0.03 0.02 0.01 0.01 0.01 0.01 0.01 0.01 0.01 0.01 0.00 0.01 0.01 0.00 0.00 0.00
MSLP
1010.21 1010.30 1010.39 1010.48 1010.59 1010.73 1010.89 1011.08 1011.29 1011.50 1011.72 1011.96 1012.22 1012.53 1012.90 1013.33 1013.82 1014.34 1014.88 1015.39 1015.84 1016.23 1016.55 1016.81 1017.04 1017.27 1017.51 1017.78 1018.07 1018.37 1018.67 1018.95 1019.20 1019.42 1019.62 1019.82 1020.03 1020.27 1020.53 1020.79 1021.05 1021.28 1021.47
1010.70 1010.84 1010.96 1011.07 1011.18 1011.31 1011.47 1011.65 1011.86 1012.10 1012.34 1012.61 1012.89 1013.20 1013.53 1013.90 1014.29 1014.71 1015.14 1015.55 1015.94 1016.30 1016.62 1016.91 1017.19 1017.46 1017.74 1018.02 1018.30 1018.57 1018.82 1019.04 1019.25 1019.43 1019.61 1019.80 1020.00 1020.23 1020.47 1020.72 1020.96 1021.17 1021.35
1011.11 1011.30 1011.46 1011.59 1011.72 1011.85 1012.01 1012.20 1012.41 1012.66 1012.93 1013.22 1013.52 1013.82 1014.13 1014.44 1014.75 1015.07 1015.39 1015.70 1016.01 1016.32 1016.63 1016.94 1017.25 1017.56 1017.86 1018.16 1018.43 1018.68 1018.89 1019.08 1019.24 1019.39 1019.55 1019.72 1019.91 1020.12 1020.34 1020.57 1020.79 1020.99 1021.18
1011.40 1011.62 1011.82 1011.99 1012.14 1012.29 1012.45 1012.65 1012.87 1013.14 1013.43 1013.74 1014.05 1014.36 1014.65 1014.92 1015.17 1015.39 1015.61 1015.83 1016.06 1016.31 1016.58 1016.88 1017.19 1017.52 1017.85 1018.16 1018.43 1018.67 1018.87 1019.03 1019.16 1019.29 1019.42 1019.57 1019.75 1019.94 1020.15 1020.36 1020.56 1020.75 1020.93
1011.57 1011.81 1012.03 1012.23 1012.42 1012.60 1012.78 1012.99 1013.22 1013.50 1013.81 1014.13 1014.46 1014.78 1015.07 1015.32 1015.52 1015.68 1015.82 1015.94 1016.09 1016.26 1016.47 1016.73 1017.03 1017.35 1017.68 1017.99 1018.27 1018.51 1018.71 1018.86 1018.99 1019.11 1019.23 1019.37 1019.53 1019.71 1019.89 1020.09 1020.27 1020.45 1020.63
1011.64 1011.88 1012.12 1012.35 1012.58 1012.79 1013.00 1013.23 1013.48 1013.76 1014.08 1014.42 1014.77 1015.10 1015.39 1015.63 1015.81 1015.92 1015.99 1016.04 1016.09 1016.18 1016.31 1016.51 1016.75 1017.05 1017.36 1017.66 1017.95 1018.19 1018.40 1018.57 1018.71 1018.83 1018.96 1019.10 1019.25 1019.42 1019.59 1019.76 1019.93 1020.10 1020.26
1011.67 1011.89 1012.14 1012.40 1012.66 1012.92 1013.16 1013.41 1013.67 1013.96 1014.28 1014.63 1014.98 1015.32 1015.62 1015.86 1016.03 1016.11 1016.13 1016.12 1016.09 1016.08 1016.12 1016.22 1016.40 1016.63 1016.90 1017.19 1017.47 1017.73 1017.95 1018.15 1018.31 1018.47 1018.61 1018.77 1018.93 1019.09 1019.25 1019.41 1019.56 1019.70 1019.84
1011.70 1011.89 1012.14 1012.43 1012.73 1013.02 1013.30 1013.57 1013.83 1014.12 1014.43 1014.76 1015.11 1015.46 1015.76 1016.01 1016.17 1016.24 1016.23 1016.15 1016.05 1015.96 1015.90 1015.91 1015.99 1016.15 1016.36 1016.61 1016.88 1017.14 1017.39 1017.61 1017.82 1018.01 1018.19 1018.37 1018.54 1018.71 1018.87 1019.02 1019.15 1019.27 1019.38
1011.76 1011.92 1012.17 1012.47 1012.80 1013.12 1013.42 1013.70 1013.96 1014.23 1014.52 1014.83 1015.16 1015.49 1015.80 1016.05 1016.21 1016.28 1016.25 1016.14 1015.98 1015.80 1015.65 1015.56 1015.55 1015.62 1015.77 1015.97 1016.21 1016.47 1016.74 1016.99 1017.23 1017.46 1017.68 1017.89 1018.10 1018.28 1018.45 1018.60 1018.72 1018.82 1018.90
1011.85 1011.98 1012.22 1012.53 1012.87 1013.20 1013.51 1013.78 1014.03 1014.27 1014.52 1014.79 1015.09 1015.40 1015.70 1015.95 1016.12 1016.20 1016.17 1016.04 1015.84 1015.61 1015.39 1015.22 1015.11 1015.10 1015.17 1015.32 1015.53 1015.78 1016.05 1016.32 1016.59 1016.86 1017.11 1017.36 1017.59 1017.81 1018.00 1018.15 1018.27 1018.36 1018.42
1011.95 1012.05 1012.26 1012.56 1012.89 1013.22 1013.52 1013.77 1013.99 1014.19 1014.39 1014.62 1014.88 1015.16 1015.45 1015.70 1015.89 1015.98 1015.97 1015.85 1015.64 1015.39 1015.12 1014.88 1014.71 1014.63 1014.63 1014.73 1014.89 1015.11 1015.37 1015.65 1015.94 1016.23 1016.52 1016.79 1017.06 1017.30 1017.51 1017.69 1017.82 1017.91 1017.95
1012.02 1012.09 1012.27 1012.53 1012.84 1013.14 1013.41 1013.63 1013.81 1013.96 1014.11 1014.29 1014.51 1014.77 1015.04 1015.30 1015.51 1015.63 1015.65 1015.56 1015.38 1015.13 1014.85 1014.59 1014.37 1014.24 1014.19 1014.23 1014.36 1014.54 1014.78 1015.05 1015.34 1015.64 1015.93 1016.23 1016.52 1016.78 1017.02 1017.22 1017.37 1017.48 1017.53
1012.04 1012.07 1012.21 1012.43 1012.69 1012.95 1013.18 1013.36 1013.49 1013.60 1013.70 1013.84 1014.02 1014.25 1014.52 1014.79 1015.02 1015.18 1015.25 1015.22 1015.08 1014.87 1014.61 1014.35 1014.13 1013.97 1013.89 1013.90 1013.98 1014.14 1014.34 1014.59 1014.86 1015.15 1015.44 1015.74 1016.04 1016.32 1016.58 1016.80 1016.98 1017.10 1017.17
1011.98 1011.98 1012.07 1012.24 1012.45 1012.66 1012.85 1012.98 1013.08 1013.15 1013.22 1013.33 1013.48 1013.70 1013.95 1014.23 1014.49 1014.70 1014.82 1014.85 1014.77 1014.62 1014.42 1014.20 1014.00 1013.85 1013.76 1013.75 1013.81 1013.94 1014.11 1014.33 1014.57 1014.83 1015.11 1015.39 1015.68 1015.96 1016.23 1016.46 1016.66 1016.81 1016.91
1011.84 1011.82 1011.88 1012.01 1012.17 1012.34 1012.49 1012.59 1012.66 1012.71 1012.76 1012.85 1012.98 1013.18 1013.43 1013.71 1013.99 1014.23 1014.41 1014.50 1014.49 1014.42 1014.28 1014.13 1013.98 1013.86 1013.80 1013.80 1013.86 1013.97 1014.12 1014.31 1014.52 1014.74 1014.99 1015.24 1015.50 1015.76 1016.02 1016.26 1016.47 1016.65 1016.78
1011.64 1011.61 1011.65 1011.75 1011.89 1012.04 1012.16 1012.26 1012.32 1012.36 1012.41 1012.49 1012.61 1012.80 1013.04 1013.31 1013.59 1013.85 1014.06 1014.20 1014.27 1014.26 1014.21 1014.13 1014.05 1014.00 1013.99 1014.02 1014.09 1014.21 1014.36 1014.52 1014.70 1014.89 1015.10 1015.31 1015.53 1015.76 1015.99 1016.21 1016.42 1016.61 1016.77
1011.37 1011.37 1011.42 1011.52 1011.66 1011.81 1011.94 1012.05 1012.13 1012.18 1012.24 1012.32 1012.43 1012.60 1012.81 1013.06 1013.33 1013.58 1013.80 1013.97 1014.09 1014.15 1014.17 1014.17 1014.17 1014.20 1014.25 1014.34 1014.46 1014.60 1014.76 1014.92 1015.09 1015.25 1015.41 1015.58 1015.75 1015.93 1016.12 1016.32 1016.51 1016.70 1016.88
1011.06 1011.09 1011.17 1011.31 1011.47 1011.65 1011.82 1011.96 1012.07 1012.16 1012.23 1012.32 1012.42 1012.57 1012.74 1012.95 1013.18 1013.41 1013.61 1013.79 1013.93 1014.04 1014.12 1014.20 1014.28 1014.39 1014.52 1014.67 1014.85 1015.04 1015.22 1015.40 1015.56 1015.70 1015.83 1015.96 1016.09 1016.22 1016.36 1016.52 1016.69 1016.87 1017.05
1010.69 1010.77 1010.91 1011.09 1011.31 1011.54 1011.76 1011.95 1012.11 1012.23 1012.33 1012.42 1012.52 1012.63 1012.77 1012.93 1013.10 1013.28 1013.45 1013.61 1013.76 1013.89 1014.02 1014.16 1014.31 1014.49 1014.69 1014.92 1015.16 1015.40 1015.62 1015.83 1016.00 1016.14 1016.25 1016.35 1016.43 1016.52 1016.62 1016.74 1016.89 1017.05 1017.24
1010.25 1010.40 1010.59 1010.84 1011.11 1011.40 1011.68 1011.93 1012.14 1012.31 1012.44 1012.54 1012.62 1012.71 1012.81 1012.91 1013.03 1013.15 1013.28 1013.41 1013.54 1013.68 1013.84 1014.01 1014.22 1014.45 1014.72 1015.00 1015.30 1015.58 1015.85 1016.09 1016.28 1016.42 1016.53 1016.61 1016.67 1016.73 1016.80 1016.89 1017.01 1017.17 1017.37
1009.74 1009.94 1010.20 1010.50 1010.84 1011.18 1011.52 1011.82 1012.08 1012.28 1012.44 1012.56 1012.64 1012.71 1012.77 1012.84 1012.91 1012.99 1013.07 1013.17 1013.28 1013.41 1013.57 1013.76 1013.99 1014.25 1014.55 1014.87 1015.21 1015.53 1015.83 1016.09 1016.30 1016.47 1016.58 1016.66 1016.71 1016.75 1016.81 1016.89 1017.00 1017.17 1017.38
1009.19 1009.44 1009.74 1010.09 1010.46 1010.85 1011.22 1011.57 1011.86 1012.10 1012.29 1012.42 1012.52 1012.59 1012.64 1012.68 1012.73 1012.77 1012.83 1012.90 1012.99 1013.10 1013.24 1013.42 1013.65 1013.91 1014.21 1014.54 1014.88 1015.22 1015.53 1015.81 1016.05 1016.22 1016.35 1016.44 1016.50 1016.54 1016.60 1016.68 1016.81 1016.99 1017.23
1008.64 1008.92 1009.25 1009.62 1010.02 1010.43 1010.82 1011.19 1011.51 1011.78 1011.99 1012.15 1012.27 1012.36 1012.42 1012.47 1012.51 1012.54 1012.59 1012.64 1012.70 1012.79 1012.91 1013.06 1013.25 1013.48 1013.75 1014.05 1014.37 1014.70 1015.01 1015.29 1015.53 1015.73 1015.87 1015.97 1016.05 1016.11 1016.18 1016.28 1016.42 1016.63 1016.91
1008.16 1008.46 1008.80 1009.18 1009.59 1010.00 1010.39 1010.76 1011.09 1011.38 1011.62 1011.81 1011.96 1012.08 1012.17 1012.24 1012.30 1012.35 1012.39 1012.43 1012.48 1012.53 1012.61 1012.71 1012.85 1013.03 1013.24 1013.49 1013.76 1014.05 1014.34 1014.61 1014.85 1015.06 1015.22 1015.34 1015.44 1015.52 1015.61 1015.73 1015.90 1016.14 1016.44
1007.81 1008.14 1008.49 1008.87 1009.26 1009.65 1010.03 1010.40 1010.73 1011.02 1011.28 1011.50 1011.68 1011.84 1011.97 1012.08 1012.16 1012.23 1012.27 1012.31 1012.33 1012.35 1012.38 1012.42 1012.49 1012.60 1012.74 1012.93 1013.15 1013.40 1013.65 1013.91 1014.15 1014.36 1014.54 1014.68 1014.80 1014.90 1015.01 1015.15 1015.33 1015.59 1015.91
1007.66 1008.01 1008.37 1008.74 1009.12 1009.49 1009.85 1010.19 1010.51 1010.81 1011.07 1011.31 1011.52 1011.71 1011.87 1012.01 1012.11 1012.19 1012.23 1012.25 1012.25 1012.23 1012.21 1012.19 1012.19 1012.23 1012.31 1012.44 1012.61 1012.82 1013.05 1013.30 1013.54 1013.77 1013.96 1014.13 1014.26 1014.38 1014.50 1014.64 1014.83 1015.07 1015.39
Thickness
5779 5778 5777 5776 5775 5774 5772 5770 5770 5769 5768 5767 5767 5766 5765 5763 5761 5758 5754 5751 5750 5749 5748 5746 5745 5744 5742 5740 5739 5737 5735 5734 5733 5732 5730 5729 5727 5726 5725 5724 5722 5722 5721
5779 5778 5776 5776 5775 5773 5772 5770 5769 5767 5767 5766 5765 5763 5762 5761 5759 5757 5753 5751 5749 5748 5747 5746 5744 5743 5742 5740 5738 5736 5734 5733 5732 5730 5729 5727 5726 5725 5724 5723 5722 5721 5720
5779 5777 5776 5775 5774 5772 5771 5770 5768 5767 5765 5764 5762 5762 5760 5759 5758 5756 5752 5750 5748 5747 5746 5744 5743 5742 5740 5739 5737 5735 5733 5732 5730 5729 5727 5726 5725 5723 5722 5721 5720 5719 5718
5780 5778 5776 5774 5773 5772 5771 5768 5767 5764 5762 5761 5760 5760 5759 5758 5756 5755 5752 5750 5748 5746 5744 5742 5741 5740 5739 5737 5736 5734 5732 5731 5729 5727 5726 5725 5723 5722 5721 5720 5719 5717 5716
5781 5779 5777 5775 5773 5771 5770 5769 5765 5763 5760 5758 5758 5758 5758 5757 5755 5754 5752 5750 5748 5746 5743 5741 5739 5738 5737 5735 5734 5733 5731 5729 5728 5726 5724 5723 5722 5720 5719 5718 5717 5715 5714
5782 5780 5778 5776 5774 5771 5768 5766 5763 5762 5761 5759 5760 5758 5757 5756 5754 5753 5751 5749 5747 5745 5742 5740 5737 5735 5734 5732 5731 5730 5729 5728 5726 5724 5723 5721 5720 5719 5717 5716 5714 5713 5712
5782 5781 5779 5776 5774 5770 5768 5766 5764 5761 5760 5760 5756 5752 5753 5755 5753 5752 5750 5749 5747 5745 5742 5739 5736 5734 5732 5730 5729 5728 5727 5725 5724 5722 5720 5719 5718 5717 5715 5713 5712 5710 5710
5782 5782 5779 5776 5774 5771 5768 5766 5764 5761 5761 5761 5755 5748 5743 5743 5748 5750 5749 5746 5746 5744 5741 5739 5736 5734 5732 5729 5727 5726 5725 5723 5721 5719 5718 5716 5715 5714 5712 5710 5709 5707 5706
5783 5781 5779 5777 5775 5772 5768 5766 5765 5762 5758 5760 5759 5752 5742 5736 5740 5744 5745 5744 5743 5741 5739 5737 5735 5733 5730 5728 5726 5724 5722 5720 5718 5716 5714 5713 5711 5710 5708 5707 5706 5704 5703
5783 5781 5779 5776 5774 5772 5769 5767 5766 5764 5760 5756 5758 5757 5754 5749 5740 5734 5738 5740 5740 5738 5737 5736 5733 5730 5727 5725 5723 5721 5718 5716 5714 5712 5710 5708 5707 5706 5704 5703 5702 5701 5700
5783 5781 5778 5776 5774 5771 5769 5768 5766 5764 5762 5758 5756 5755 5753 5751 5748 5738 5731 5733 5734 5735 5734 5732 5730 5727 5724 5722 5719 5716 5714 5712 5709 5707 5706 5704 5702 5701 5700 5699 5699 5698 5697
5782 5781 5778 5776 5774 5771 5769 5767 5766 5763 5761 5759 5758 5756 5753 5749 5745 5741 5734 5731 5729 5730 5731 5730 5727 5724 5721 5718 5715 5712 5710 5707 5705 5702 5701 5699 5698 5696 5695 5694 5693 5692 5691
5780 5779 5778 5775 5773 5771 5769 5767 5765 5763 5761 5759 5757 5756 5756 5753 5751 5746 5739 5733 5729 5728 5727 5726 5725 5722 5719 5715 5711 5708 5705 5702 5700 5697 5695 5694 5692 5691 5689 5688 5687 5686 5684
5782 5780 5777 5775 5773 5771 5769 5767 5765 5763 5762 5760 5759 5757 5755 5754 5753 5748 5742 5735 5727 5724 5723 5721 5721 5719 5715 5711 5707 5704 5700 5697 5695 5692 5690 5688 5686 5684 5683 5682 5681 5679 5677
5783 5780 5778 5775 5772 5770 5768 5766 5763 5762 5761 5759 5758 5757 5754 5754 5753 5750 5747 5741 5730 5720 5716 5717 5715 5714 5711 5707 5703 5700 5696 5692 5690 5687 5684 5682 5680 5678 5676 5675 5674 5672 5671
5782 5779 5777 5774 5772 5769 5767 5764 5762 5761 5760 5758 5757 5755 5753 5752 5751 5749 5746 5743 5738 5728 5718 5715 5713 5710 5707 5704 5699 5696 5691 5687 5684 5682 5679 5676 5674 5671 5670 5668 5667 5665 5663
5780 5777 5775 5773 5770 5768 5766 5763 5761 5760 5758 5756 5756 5754 5751 5750 5748 5747 5745 5741 5736 5730 5719 5713 5710 5706 5702 5699 5695 5692 5688 5684 5680 5677 5674 5671 5668 5666 5663 5661 5659 5657 5655
5780 5777 5774 5771 5769 5767 5764 5762 5759 5758 5756 5754 5753 5751 5749 5749 5746 5744 5741 5737 5733 5728 5720 5710 5705 5702 5698 5695 5692 5688 5685 5681 5676 5672 5669 5665 5662 5659 5657 5655 5652 5650 5648
5779 5776 5773 5769 5767 5765 5763 5761 5758 5756 5755 5753 5752 5749 5747 5745 5742 5740 5737 5733 5729 5726 5719 5711 5704 5700 5695 5692 5687 5684 5681 5677 5673 5667 5663 5660 5656 5654 5651 5648 5645 5643 5641
5778 5775 5772 5769 5766 5764 5762 5759 5757 5755 5753 5752 5750 5747 5745 5742 5738 5736 5733 5729 5725 5719 5714 5708 5702 5697 5692 5688 5684 5679 5674 5671 5668 5664 5659 5655 5652 5648 5645 5642 5639 5637 5634
5778 5774 5771 5768 5765 5763 5761 5758 5755 5753 5751 5749 5747 5744 5742 5739 5736 5732 5729 5725 5720 5715 5709 5703 5698 5693 5688 5683 5680 5677 5671 5666 5663 5660 5655 5651 5647 5643 5640 5636 5634 5631 5628
5776 5773 5769 5766 5763 5762 5759 5756 5753 5751 5748 5745 5742 5740 5738 5735 5732 5728 5725 5721 5717 5711 5705 5700 5695 5690 5685 5682 5678 5674 5668 5663 5657 5656 5652 5647 5645 5640 5636 5632 5629 5626 5623
5773 5770 5767 5764 5761 5758 5756 5753 5750 5747 5745 5742 5739 5737 5735 5732 5728 5724 5721 5717 5712 5708 5704 5698 5693 5688 5684 5681 5676 5670 5666 5661 5656 5654 5649 5643 5641 5636 5632 5628 5625 5621 5617
5771 5768 5765 5762 5759 5756 5753 5749 5746 5744 5741 5739 5736 5734 5730 5727 5724 5719 5716 5712 5708 5704 5700 5695 5691 5687 5684 5679 5674 5669 5663 5658 5655 5651 5647 5639 5637 5632 5629 5624 5620 5616 5612
5767 5764 5762 5759 5756 5752 5749 5745 5742 5739 5736 5734 5732 5730 5727 5722 5719 5714 5710 5706 5702 5699 5695 5691 5687 5683 5679 5674 5669 5663 5657 5651 5646 5644 5642 5636 5632 5628 5624 5620 5615 5611 5607
5764 5761 5758 5755 5753 5749 5745 5742 5738 5735 5732 5730 5728 5725 5721 5717 5713 5708 5705 5700 5695 5693 5690 5685 5681 5678 5674 5669 5664 5659 5654 5647 5643 5639 5637 5631 5627 5623 5617 5615 5611 5606 5601